Location: Solstice Park, West Seattle
(47.5363°N, 122.3905°W)
Time: 08:09:41
(UTC-07:00)

ISS - Pass Details

Date: 18 May 2021
Orbit: 417 x 422 km, 51.6° (Epoch: 18 June)

Event Time Altitude Azimuth Distance (km) Brightness Sun altitude
Rises 01:35:27 0° 293° (WNW) 2,372 0.3 -22.5°
Reaches altitude 10° 01:37:34 10° 296° (WNW) 1,507 -0.7 -22.5°
Enters shadow 01:39:47 37° 311° (NW) 676 -2.5 -22.4°
